TimeCDT,TemperatureF,Dew PointF,Humidity,Sea Level PressureIn,VisibilityMPH,Wind Direction,Wind SpeedMPH,Gust SpeedMPH,PrecipitationIn,Events,Conditions,WindDirDegrees,DateUTC
12:53 AM,59.0,46.0,62,29.95,10.0,SE,12.7,-,N/A,,Clear,130,2011-11-01 05:53:00
1:53 AM,57.9,46.9,67,29.94,10.0,SE,12.7,-,N/A,,Clear,130,2011-11-01 06:53:00
2:53 AM,55.9,48.0,75,29.93,10.0,SE,11.5,-,N/A,,Clear,130,2011-11-01 07:53:00
3:53 AM,55.0,48.0,77,29.91,10.0,SE,10.4,-,N/A,,Clear,130,2011-11-01 08:53:00
4:53 AM,53.1,46.9,80,29.91,10.0,SE,8.1,-,N/A,,Clear,130,2011-11-01 09:53:00
5:53 AM,53.1,48.0,83,29.91,10.0,SE,8.1,-,N/A,,Clear,130,2011-11-01 10:53:00
6:53 AM,51.1,46.9,86,29.92,10.0,SE,9.2,-,N/A,,Clear,130,2011-11-01 11:53:00
7:53 AM,51.8,46.4,82,30.00,10.0,ESE,8.1,-,N/A,,Clear,120,2011-11-01 12:53:00
8:53 AM,52.0,48.0,86,29.94,10.0,SE,9.2,-,N/A,,Clear,130,2011-11-01 13:53:00
9:53 AM,57.9,50.0,75,29.94,10.0,SE,11.5,-,N/A,,Clear,140,2011-11-01 14:53:00
10:53 AM,64.0,46.9,54,29.94,10.0,SSE,9.2,-,N/A,,Clear,160,2011-11-01 15:53:00
11:53 AM,70.0,46.0,42,29.92,10.0,SE,8.1,-,N/A,,Clear,130,2011-11-01 16:53:00
12:53 PM,77.0,42.1,29,29.88,10.0,SE,6.9,-,N/A,,Clear,140,2011-11-01 17:53:00
1:53 PM,80.1,39.0,23,29.85,10.0,SSE,8.1,-,N/A,,Clear,150,2011-11-01 18:53:00
2:53 PM,84.0,37.9,19,29.81,10.0,South,8.1,16.1,N/A,,Clear,170,2011-11-01 19:53:00
3:53 PM,87.1,36.0,16,29.78,10.0,SSE,10.4,-,N/A,,Clear,160,2011-11-01 20:53:00
4:53 PM,87.1,34.0,15,29.76,10.0,SSE,10.4,-,N/A,,Clear,160,2011-11-01 21:53:00
5:53 PM,84.9,41.0,21,29.75,10.0,ESE,17.3,-,N/A,,Clear,120,2011-11-01 22:53:00
6:53 PM,80.1,41.0,25,29.75,10.0,ESE,16.1,21.9,N/A,,Clear,120,2011-11-01 23:53:00
7:53 PM,75.9,42.1,30,29.77,10.0,ESE,13.8,-,N/A,,Clear,120,2011-11-02 00:53:00
8:53 PM,72.0,42.1,34,29.79,10.0,SE,12.7,-,N/A,,Clear,140,2011-11-02 01:53:00
9:53 PM,69.1,43.0,39,29.79,10.0,SE,11.5,-,N/A,,Clear,140,2011-11-02 02:53:00
10:53 PM,68.0,46.9,47,29.78,10.0,SSE,18.4,-,N/A,,Clear,150,2011-11-02 03:53:00
11:53 PM,66.0,48.0,52,29.78,10.0,SE,15.0,-,N/A,,Clear,140,2011-11-02 04:53:00